| time (UTC) | temp F | wind direction | speed MPH | gust MPH | rain 1hr in | rain 24hr in | rain mn in | humidity % | barometer mb |
| 20260905233046 | 77 | 221 | 0.0 | 0.0 | 0.00 | 0.32 | 0.23 | 96 | 1009.0 |
| 20260905231544 | 77 | 221 | 0.0 | 0.0 | 0.00 | 0.32 | 0.23 | 96 | 1008.8 |
| 20260905230044 | 77 | 221 | 0.0 | 0.0 | 0.00 | 0.32 | 0.23 | 96 | 1008.5 |
| 20260905224550 | 78 | 221 | 0.0 | 0.0 | 0.00 | 0.38 | 0.23 | 95 | 1008.6 |
| 20260905223042 | 78 | 221 | 0.0 | 0.0 | 0.00 | 0.38 | 0.23 | 95 | 1008.5 |
| 20260905221540 | 78 | 221 | 0.0 | 0.0 | 0.00 | 0.38 | 0.23 | 96 | 1008.7 |
| 20260905220018 | 77 | 221 | 0.0 | 0.0 | 0.00 | 0.38 | 0.23 | 96 | 1009.0 |
| 20260905214519 | 76 | 221 | 0.0 | 0.0 | 0.00 | 0.38 | 0.23 | 97 | 1009.1 |
| 20260905213016 | 76 | 221 | 0.0 | 0.0 | 0.00 | 0.38 | 0.23 | 98 | 1008.8 |
| 20260905211515 | 76 | 221 | 0.0 | 0.0 | 0.00 | 0.38 | 0.23 | 98 | 1009.0 |
| 20260905210015 | 75 | 221 | 0.0 | 0.0 | 0.00 | 0.38 | 0.23 | 97 | 1009.5 |
| 20260905204515 | 75 | 221 | 0.0 | 0.0 | 0.00 | 0.38 | 0.23 | 98 | 1009.7 |
| 20260905203014 | 75 | 221 | 0.0 | 0.0 | 0.00 | 0.38 | 0.23 | 97 | 1009.2 |
| 20260905201512 | 74 | 221 | 0.0 | 0.0 | 0.00 | 0.38 | 0.23 | 97 | 1008.6 |
| 20260905200020 | 74 | 221 | 0.0 | 0.0 | 0.01 | 0.38 | 0.23 | 97 | 1008.7 |
| 20260905194513 | 74 | 221 | 0.0 | 0.0 | 0.09 | 0.38 | 0.23 | 96 | 1009.1 |
| 20260905193010 | 74 | 221 | 0.0 | 2.0 | 0.23 | 0.38 | 0.23 | 95 | 1008.7 |
| 20260905191507 | 75 | 207 | 0.0 | 0.0 | 0.23 | 0.38 | 0.23 | 94 | 1009.3 |
| 20260905190004 | 76 | 207 | 0.0 | 3.0 | 0.22 | 0.37 | 0.22 | 92 | 1009.1 |
| 20260905184620 | 79 | 46 | 0.0 | 10.0 | 0.14 | 0.28 | 0.14 | 82 | 1009.8 |
| 20260905183055 | 91 | 126 | 0.0 | 0.0 | 0.00 | 0.15 | 0.00 | 69 | 1009.6 |
| 20260905181559 | 93 | 219 | 0.0 | 0.0 | 0.00 | 0.15 | 0.00 | 67 | 1008.8 |
| 20260905180053 | 95 | 219 | 0.0 | 2.0 | 0.00 | 0.15 | 0.00 | 60 | 1008.9 |
| 20260905174549 | 95 | 165 | 1.0 | 6.0 | 0.00 | 0.15 | 0.00 | 62 | 1009.6 |
| 20260905173044 | 93 | 216 | 0.0 | 1.0 | 0.00 | 0.15 | 0.00 | 64 | 1009.8 |
| 20260905171543 | 92 | 199 | 0.0 | 4.0 | 0.00 | 0.15 | 0.00 | 64 | 1010.2 |
| 20260905170038 | 92 | 240 | 0.0 | 3.0 | 0.00 | 0.15 | 0.00 | 71 | 1010.4 |
| 20260905164534 | 91 | 214 | 0.0 | 3.0 | 0.00 | 0.15 | 0.00 | 68 | 1010.6 |
| 20260905163029 | 90 | 228 | 0.0 | 0.0 | 0.00 | 0.15 | 0.00 | 72 | 1010.9 |